TimeEDT,TemperatureF,Dew PointF,Humidity,Sea Level PressureIn,VisibilityMPH,Wind Direction,Wind SpeedMPH,Gust SpeedMPH,PrecipitationIn,Events,Conditions,WindDirDegrees,DateUTC
12:55 AM,53.6,48.2,82,29.80,10.0,ESE,8.1,-,N/A,,Clear,120,2011-10-13 04:55:00
1:15 AM,55.4,48.2,77,29.80,10.0,ESE,9.2,-,N/A,,Partly Cloudy,120,2011-10-13 05:15:00
1:35 AM,55.4,50.0,82,29.80,10.0,ESE,6.9,-,N/A,,Mostly Cloudy,110,2011-10-13 05:35:00
1:55 AM,55.4,50.0,82,29.79,10.0,ESE,6.9,-,N/A,,Overcast,120,2011-10-13 05:55:00
2:15 AM,55.4,50.0,82,29.79,10.0,ESE,5.8,-,N/A,,Overcast,120,2011-10-13 06:15:00
2:35 AM,55.4,50.0,82,29.78,10.0,ESE,6.9,-,N/A,,Overcast,120,2011-10-13 06:35:00
2:55 AM,55.4,51.8,88,29.78,10.0,ESE,6.9,-,N/A,,Overcast,110,2011-10-13 06:55:00
3:15 AM,55.4,51.8,88,29.76,10.0,ESE,9.2,-,N/A,,Overcast,120,2011-10-13 07:15:00
3:35 AM,55.4,51.8,88,29.76,10.0,ESE,6.9,-,N/A,,Overcast,120,2011-10-13 07:35:00
4:15 AM,55.4,51.8,88,29.75,10.0,ESE,5.8,-,N/A,,Overcast,110,2011-10-13 08:15:00
4:35 AM,55.4,51.8,88,29.74,10.0,East,4.6,-,N/A,,Overcast,80,2011-10-13 08:35:00
4:55 AM,55.4,51.8,88,29.73,10.0,ENE,4.6,-,N/A,,Overcast,70,2011-10-13 08:55:00
5:15 AM,55.4,51.8,88,29.73,10.0,East,3.5,-,N/A,,Overcast,80,2011-10-13 09:15:00
5:35 AM,55.4,51.8,88,29.72,10.0,ENE,4.6,-,N/A,,Overcast,60,2011-10-13 09:35:00
6:15 AM,55.4,51.8,88,29.71,10.0,NE,6.9,-,N/A,,Overcast,40,2011-10-13 10:15:00
6:35 AM,55.4,51.8,88,29.70,10.0,ENE,6.9,-,N/A,,Overcast,60,2011-10-13 10:35:00
6:55 AM,55.4,51.8,88,29.70,10.0,ENE,5.8,-,N/A,,Overcast,60,2011-10-13 10:55:00
7:15 AM,55.4,51.8,88,29.69,10.0,NE,4.6,-,N/A,,Overcast,50,2011-10-13 11:15:00
7:35 AM,55.4,51.8,88,29.69,10.0,ENE,6.9,-,N/A,,Overcast,60,2011-10-13 11:35:00
7:55 AM,55.4,51.8,88,29.68,10.0,ENE,6.9,-,N/A,,Overcast,70,2011-10-13 11:55:00
8:35 AM,55.4,51.8,88,29.67,10.0,NE,5.8,-,N/A,,Overcast,50,2011-10-13 12:35:00
8:55 AM,55.4,51.8,88,29.67,10.0,East,8.1,-,N/A,,Overcast,80,2011-10-13 12:55:00
9:15 AM,55.4,51.8,88,29.67,10.0,East,8.1,-,N/A,,Overcast,80,2011-10-13 13:15:00
9:35 AM,55.4,51.8,88,29.66,10.0,East,8.1,-,N/A,,Overcast,80,2011-10-13 13:35:00
9:55 AM,55.4,51.8,88,29.66,10.0,East,5.8,-,N/A,,Overcast,90,2011-10-13 13:55:00
10:15 AM,57.2,51.8,82,29.65,10.0,East,9.2,-,N/A,,Overcast,80,2011-10-13 14:15:00
10:35 AM,57.2,51.8,82,29.64,10.0,East,8.1,-,N/A,,Overcast,100,2011-10-13 14:35:00
10:55 AM,57.2,51.8,82,29.64,9.0,East,11.5,-,N/A,,Overcast,80,2011-10-13 14:55:00
11:35 AM,57.2,51.8,82,29.63,10.0,East,8.1,-,N/A,,Overcast,80,2011-10-13 15:35:00
11:55 AM,57.2,51.8,82,29.62,8.0,ESE,9.2,-,N/A,,Overcast,110,2011-10-13 15:55:00
12:15 PM,55.4,51.8,88,29.61,5.0,ESE,10.4,-,N/A,,Overcast,120,2011-10-13 16:15:00
12:35 PM,55.4,51.8,88,29.61,10.0,ESE,8.1,-,N/A,,Overcast,110,2011-10-13 16:35:00
12:55 PM,55.4,51.8,88,29.60,10.0,SE,6.9,-,N/A,,Overcast,130,2011-10-13 16:55:00
1:15 PM,55.4,51.8,88,29.59,7.0,SE,6.9,-,N/A,,Overcast,130,2011-10-13 17:15:00
1:35 PM,57.2,51.8,82,29.58,7.0,East,8.1,-,N/A,,Overcast,90,2011-10-13 17:35:00
1:55 PM,57.2,51.8,82,29.57,10.0,East,8.1,-,N/A,,Overcast,100,2011-10-13 17:55:00
2:15 PM,57.2,53.6,88,29.56,10.0,SE,8.1,-,N/A,,Overcast,130,2011-10-13 18:15:00
2:55 PM,59.0,51.8,77,29.55,10.0,ESE,10.4,-,N/A,,Overcast,120,2011-10-13 18:55:00
3:15 PM,57.2,51.8,82,29.54,10.0,ESE,10.4,-,N/A,,Overcast,120,2011-10-13 19:15:00
3:55 PM,57.2,51.8,82,29.53,10.0,ESE,11.5,-,N/A,,Overcast,110,2011-10-13 19:55:00
4:15 PM,57.2,51.8,82,29.53,10.0,East,9.2,-,N/A,,Overcast,100,2011-10-13 20:15:00
4:35 PM,57.2,51.8,82,29.52,10.0,East,8.1,-,N/A,,Overcast,100,2011-10-13 20:35:00
4:55 PM,57.2,51.8,82,29.52,10.0,ESE,9.2,-,N/A,,Overcast,110,2011-10-13 20:55:00
5:15 PM,57.2,51.8,82,29.51,10.0,East,11.5,-,N/A,,Overcast,100,2011-10-13 21:15:00
5:35 PM,59.0,51.8,77,29.51,10.0,ESE,10.4,-,N/A,,Overcast,110,2011-10-13 21:35:00
6:15 PM,57.2,51.8,82,29.50,10.0,ESE,10.4,-,N/A,,Overcast,110,2011-10-13 22:15:00
6:35 PM,57.2,51.8,82,29.50,10.0,ESE,8.1,-,N/A,,Overcast,120,2011-10-13 22:35:00
6:55 PM,57.2,51.8,82,29.50,10.0,ESE,8.1,-,N/A,,Overcast,120,2011-10-13 22:55:00
7:15 PM,57.2,51.8,82,29.49,10.0,ESE,9.2,-,N/A,,Overcast,120,2011-10-13 23:15:00
7:35 PM,57.2,51.8,82,29.49,10.0,ESE,8.1,-,N/A,,Overcast,110,2011-10-13 23:35:00
8:35 PM,55.4,51.8,88,29.49,10.0,ESE,11.5,-,N/A,,Overcast,120,2011-10-14 00:35:00
8:55 PM,55.4,51.8,88,29.48,10.0,ESE,10.4,-,N/A,,Overcast,110,2011-10-14 00:55:00
9:15 PM,55.4,51.8,88,29.47,10.0,East,6.9,-,N/A,,Mostly Cloudy,100,2011-10-14 01:15:00
9:35 PM,55.4,51.8,88,29.46,10.0,East,9.2,-,N/A,,Scattered Clouds,100,2011-10-14 01:35:00
9:55 PM,55.4,51.8,88,29.46,10.0,East,11.5,-,N/A,,Mostly Cloudy,100,2011-10-14 01:55:00
10:15 PM,55.4,51.8,88,29.46,10.0,ESE,13.8,-,N/A,,Overcast,120,2011-10-14 02:15:00
10:35 PM,55.4,51.8,88,29.46,9.0,ESE,12.7,-,N/A,,Overcast,120,2011-10-14 02:35:00
10:55 PM,55.4,51.8,88,29.45,9.0,East,10.4,-,N/A,,Overcast,100,2011-10-14 02:55:00
11:15 PM,55.4,51.8,88,29.44,9.0,ESE,10.4,-,N/A,,Overcast,110,2011-10-14 03:15:00